Time,TemperatureF,DewpointF,PressureIn,WindDirection,WindDirectionDegrees,WindSpeedMPH,WindSpeedGustMPH,Humidity,HourlyPrecipIn,Conditions,Clouds,dailyrainin,SoftwareType,DateUTC
2013-01-20 00:04:00,65.0,65.0,30.10,SW,231,4.0,5.0,99,-99.99,,,-99.99,,2013-01-20 05:04:00,
2013-01-20 00:12:00,65.0,65.0,30.09,SSW,204,4.0,9.0,99,-99.99,,,-99.99,,2013-01-20 05:12:00,
2013-01-20 00:23:00,65.0,65.0,30.09,SSW,204,4.0,9.0,99,-99.99,,,-99.99,,2013-01-20 05:23:00,
2013-01-20 00:33:00,65.0,65.0,30.09,SSW,204,4.0,9.0,99,-99.99,,,-99.99,,2013-01-20 05:33:00,
2013-01-20 00:43:00,65.0,65.0,30.09,SSW,204,4.0,9.0,99,-99.99,,,-99.99,,2013-01-20 05:43:00,
2013-01-20 00:53:00,64.0,64.0,30.08,North,7999,0.0,9.0,99,-99.99,,,-99.99,,2013-01-20 05:53:00,
2013-01-20 01:02:00,64.0,64.0,30.08,North,7999,0.0,9.0,99,-99.99,,,-99.99,,2013-01-20 06:02:00,
2013-01-20 01:12:00,64.0,64.0,30.08,North,7999,0.0,9.0,99,-99.99,,,-99.99,,2013-01-20 06:12:00,
2013-01-20 01:22:00,64.0,64.0,30.08,North,7999,0.0,9.0,99,-99.99,,,-99.99,,2013-01-20 06:22:00,
2013-01-20 01:33:00,64.0,64.0,30.08,North,7999,0.0,9.0,99,-99.99,,,-99.99,,2013-01-20 06:33:00,
2013-01-20 01:43:00,63.0,63.0,30.08,NNW,330,3.0,4.0,99,-99.99,,,-99.99,,2013-01-20 06:43:00,
2013-01-20 01:53:00,64.0,63.0,30.08,ESE,123,3.0,3.0,99,-99.99,,,-99.99,,2013-01-20 06:53:00,
2013-01-20 02:02:00,64.0,63.0,30.08,ESE,123,3.0,3.0,99,-99.99,,,-99.99,,2013-01-20 07:02:00,
2013-01-20 02:12:00,64.0,63.0,30.07,NE,37,2.0,3.0,99,-99.99,,,-99.99,,2013-01-20 07:12:00,
2013-01-20 02:22:00,64.0,63.0,30.07,NE,37,2.0,3.0,99,-99.99,,,-99.99,,2013-01-20 07:22:00,
2013-01-20 02:32:00,63.0,63.0,30.07,ENE,61,3.0,5.0,99,-99.99,,,-99.99,,2013-01-20 07:32:00,
2013-01-20 02:42:00,63.0,63.0,30.07,SSE,157,3.0,5.0,99,-99.99,,,-99.99,,2013-01-20 07:42:00,
2013-01-20 02:52:00,63.0,63.0,30.06,SE,125,3.0,4.0,99,-99.99,,,-99.99,,2013-01-20 07:52:00,
2013-01-20 03:02:00,63.0,63.0,30.06,SE,125,3.0,4.0,99,-99.99,,,-99.99,,2013-01-20 08:02:00,
2013-01-20 03:12:00,63.0,63.0,30.06,NNW,330,4.0,5.0,99,-99.99,,,-99.99,,2013-01-20 08:12:00,
2013-01-20 03:22:00,63.0,63.0,30.06,NNW,330,4.0,5.0,99,-99.99,,,-99.99,,2013-01-20 08:22:00,
2013-01-20 03:32:00,63.0,63.0,30.06,SSW,197,4.0,5.0,99,-99.99,,,-99.99,,2013-01-20 08:32:00,
2013-01-20 03:42:00,63.0,63.0,30.06,NE,52,2.0,4.0,99,-99.99,,,-99.99,,2013-01-20 08:42:00,
2013-01-20 03:53:00,63.0,63.0,30.05,SW,235,2.0,3.0,99,-99.99,,,-99.99,,2013-01-20 08:53:00,
2013-01-20 04:02:00,63.0,63.0,30.05,SW,235,2.0,3.0,99,-99.99,,,-99.99,,2013-01-20 09:02:00,
2013-01-20 04:12:00,62.0,62.0,30.05,SSW,213,2.0,4.0,99,-99.99,,,-99.99,,2013-01-20 09:12:00,
2013-01-20 04:22:00,62.0,62.0,30.05,WNW,294,2.0,4.0,99,-99.99,,,-99.99,,2013-01-20 09:22:00,
2013-01-20 04:33:00,62.0,62.0,30.05,WNW,294,2.0,4.0,99,-99.99,,,-99.99,,2013-01-20 09:33:00,
2013-01-20 04:42:00,62.0,62.0,30.05,NNW,337,4.0,4.0,99,-99.99,,,-99.99,,2013-01-20 09:42:00,
2013-01-20 04:53:00,63.0,63.0,30.06,NW,307,3.0,4.0,99,-99.99,,,-99.99,,2013-01-20 09:53:00,
2013-01-20 05:02:00,63.0,63.0,30.06,NW,307,3.0,4.0,99,-99.99,,,-99.99,,2013-01-20 10:02:00,
2013-01-20 05:12:00,63.0,63.0,30.06,ESE,118,3.0,4.0,99,-99.99,,,-99.99,,2013-01-20 10:12:00,
2013-01-20 05:23:00,63.0,63.0,30.06,ESE,118,3.0,4.0,99,-99.99,,,-99.99,,2013-01-20 10:23:00,
2013-01-20 05:32:00,63.0,63.0,30.06,NNW,336,4.0,6.0,99,-99.99,,,-99.99,,2013-01-20 10:32:00,
2013-01-20 05:42:00,64.0,64.0,30.06,NW,311,5.0,6.0,99,-99.99,,,-99.99,,2013-01-20 10:42:00,
2013-01-20 05:53:00,64.0,64.0,30.06,NW,326,5.0,7.0,99,-99.99,,,-99.99,,2013-01-20 10:53:00,
2013-01-20 06:03:00,64.0,64.0,30.06,NW,326,5.0,7.0,99,-99.99,,,-99.99,,2013-01-20 11:03:00,
2013-01-20 06:12:00,64.0,64.0,30.07,NNW,336,5.0,7.0,99,-99.99,,,-99.99,,2013-01-20 11:12:00,
2013-01-20 06:22:00,64.0,64.0,30.07,NNW,336,5.0,7.0,99,-99.99,,,-99.99,,2013-01-20 11:22:00,
2013-01-20 06:33:00,64.0,64.0,30.07,NNW,330,5.0,9.0,99,-99.99,,,-99.99,,2013-01-20 11:33:00,
2013-01-20 06:43:00,64.0,64.0,30.07,NNW,332,4.0,7.0,99,-99.99,,,-99.99,,2013-01-20 11:43:00,
2013-01-20 06:54:00,64.0,64.0,30.08,NW,326,3.0,5.0,99,-99.99,,,-99.99,,2013-01-20 11:54:00,
2013-01-20 07:03:00,64.0,64.0,30.08,NW,326,3.0,5.0,99,-99.99,,,-99.99,,2013-01-20 12:03:00,
2013-01-20 07:13:00,63.0,63.0,30.08,NW,316,3.0,5.0,99,-99.99,,,-99.99,,2013-01-20 12:13:00,
2013-01-20 07:23:00,63.0,63.0,30.08,NW,316,3.0,5.0,99,-99.99,,,-99.99,,2013-01-20 12:23:00,
2013-01-20 07:33:00,64.0,64.0,30.08,NW,324,3.0,5.0,99,-99.99,,,-99.99,,2013-01-20 12:33:00,
2013-01-20 07:43:00,64.0,64.0,30.08,NW,326,2.0,4.0,99,-99.99,,,-99.99,,2013-01-20 12:43:00,
2013-01-20 07:53:00,64.0,-99.9,30.08,NW,305,1.0,3.0,100,-99.99,,,-99.99,,2013-01-20 12:53:00,
2013-01-20 08:03:00,64.0,-99.9,30.08,NW,305,1.0,3.0,100,-99.99,,,-99.99,,2013-01-20 13:03:00,
2013-01-20 08:12:00,64.0,64.0,30.09,NW,320,2.0,3.0,99,-99.99,,,-99.99,,2013-01-20 13:12:00,
2013-01-20 08:23:00,64.0,64.0,30.09,NW,320,2.0,3.0,99,-99.99,,,-99.99,,2013-01-20 13:23:00,
2013-01-20 08:33:00,65.0,64.0,30.10,WNW,293,2.0,4.0,99,-99.99,,,-99.99,,2013-01-20 13:33:00,
2013-01-20 08:43:00,65.0,65.0,30.11,WNW,301,2.0,4.0,99,-99.99,,,-99.99,,2013-01-20 13:43:00,
2013-01-20 08:53:00,66.0,65.0,30.11,NW,314,2.0,4.0,99,-99.99,,,-99.99,,2013-01-20 13:53:00,
2013-01-20 09:03:00,66.0,65.0,30.11,NW,314,2.0,4.0,99,-99.99,,,-99.99,,2013-01-20 14:03:00,
2013-01-20 09:12:00,66.0,66.0,30.12,NW,325,3.0,5.0,99,-99.99,,,-99.99,,2013-01-20 14:12:00,
2013-01-20 09:23:00,66.0,66.0,30.12,NW,325,3.0,5.0,99,-99.99,,,-99.99,,2013-01-20 14:23:00,
2013-01-20 09:33:00,67.0,67.0,30.13,NNW,331,5.0,9.0,99,-99.99,,,-99.99,,2013-01-20 14:33:00,
2013-01-20 09:43:00,67.0,67.0,30.13,NNW,330,5.0,7.0,98,-99.99,,,-99.99,,2013-01-20 14:43:00,
2013-01-20 09:53:00,68.0,67.0,30.13,NW,308,6.0,12.0,97,-99.99,,,-99.99,,2013-01-20 14:53:00,
2013-01-20 10:04:00,68.0,67.0,30.13,NW,308,6.0,12.0,97,-99.99,,,-99.99,,2013-01-20 15:04:00,
2013-01-20 10:13:00,69.0,68.0,30.13,SSW,195,5.0,11.0,96,-99.99,,,-99.99,,2013-01-20 15:13:00,
2013-01-20 10:23:00,69.0,68.0,30.13,SSW,195,5.0,11.0,96,-99.99,,,-99.99,,2013-01-20 15:23:00,
2013-01-20 10:33:00,70.0,68.0,30.13,SE,124,3.0,5.0,92,-99.99,,,-99.99,,2013-01-20 15:33:00,
2013-01-20 10:42:00,72.0,68.0,30.12,SSE,167,5.0,8.0,87,-99.99,,,-99.99,,2013-01-20 15:42:00,
2013-01-20 10:53:00,73.0,68.0,30.12,West,264,5.0,8.0,82,-99.99,,,-99.99,,2013-01-20 15:53:00,
2013-01-20 11:03:00,73.0,68.0,30.12,West,264,5.0,8.0,82,-99.99,,,-99.99,,2013-01-20 16:03:00,
2013-01-20 11:12:00,73.0,68.0,30.12,West,264,5.0,8.0,82,-99.99,,,-99.99,,2013-01-20 16:12:00,
2013-01-20 11:23:00,74.0,68.0,30.12,SW,233,5.0,9.0,80,-99.99,,,-99.99,,2013-01-20 16:23:00,
2013-01-20 11:33:00,75.0,67.0,30.12,SW,217,4.0,7.0,77,-99.99,,,-99.99,,2013-01-20 16:33:00,
2013-01-20 11:43:00,75.0,67.0,30.12,SW,217,4.0,7.0,77,-99.99,,,-99.99,,2013-01-20 16:43:00,
2013-01-20 11:53:00,75.0,68.0,30.10,SW,217,2.0,6.0,76,-99.99,,,-99.99,,2013-01-20 16:53:00,
2013-01-20 12:03:00,75.0,68.0,30.10,SW,217,2.0,6.0,76,-99.99,,,-99.99,,2013-01-20 17:03:00,
2013-01-20 12:13:00,77.0,68.0,30.09,ESE,117,2.0,5.0,73,-99.99,,,-99.99,,2013-01-20 17:13:00,
2013-01-20 12:22:00,77.0,68.0,30.09,ESE,117,2.0,5.0,73,-99.99,,,-99.99,,2013-01-20 17:22:00,
2013-01-20 12:33:00,77.0,68.0,30.08,SE,142,3.0,5.0,72,-99.99,,,-99.99,,2013-01-20 17:33:00,
2013-01-20 12:42:00,76.0,68.0,30.07,SSW,194,3.0,7.0,74,-99.99,,,-99.99,,2013-01-20 17:42:00,
2013-01-20 12:53:00,75.0,67.0,30.06,ENE,77,3.0,5.0,74,-99.99,,,-99.99,,2013-01-20 17:53:00,
2013-01-20 13:03:00,75.0,67.0,30.06,ENE,77,3.0,5.0,74,-99.99,,,-99.99,,2013-01-20 18:03:00,
2013-01-20 13:13:00,76.0,66.0,30.05,SSE,151,1.0,2.0,71,-99.99,,,-99.99,,2013-01-20 18:13:00,
2013-01-20 13:23:00,76.0,66.0,30.05,SSE,151,1.0,2.0,71,-99.99,,,-99.99,,2013-01-20 18:23:00,
2013-01-20 13:33:00,78.0,66.0,30.04,SE,140,1.0,3.0,66,-99.99,,,-99.99,,2013-01-20 18:33:00,
2013-01-20 13:43:00,78.0,66.0,30.04,SE,140,1.0,3.0,66,-99.99,,,-99.99,,2013-01-20 18:43:00,
2013-01-20 13:53:00,79.0,67.0,30.03,East,94,4.0,8.0,66,-99.99,,,-99.99,,2013-01-20 18:53:00,
2013-01-20 14:03:00,79.0,67.0,30.03,East,94,4.0,8.0,66,-99.99,,,-99.99,,2013-01-20 19:03:00,
2013-01-20 14:12:00,77.0,67.0,30.02,SE,131,5.0,8.0,70,-99.99,,,-99.99,,2013-01-20 19:12:00,
2013-01-20 14:23:00,77.0,67.0,30.02,SE,131,5.0,8.0,70,-99.99,,,-99.99,,2013-01-20 19:23:00,
2013-01-20 14:33:00,78.0,66.0,30.02,NE,55,4.0,8.0,67,-99.99,,,-99.99,,2013-01-20 19:33:00,
2013-01-20 14:43:00,78.0,66.0,30.01,ENE,72,5.0,7.0,67,-99.99,,,-99.99,,2013-01-20 19:43:00,
2013-01-20 14:53:00,78.0,66.0,30.01,East,89,3.0,6.0,65,-99.99,,,-99.99,,2013-01-20 19:53:00,
2013-01-20 15:03:00,78.0,66.0,30.01,East,89,3.0,6.0,65,-99.99,,,-99.99,,2013-01-20 20:03:00,
2013-01-20 15:12:00,79.0,66.0,30.01,East,101,4.0,7.0,64,-99.99,,,-99.99,,2013-01-20 20:12:00,
2013-01-20 15:23:00,79.0,66.0,30.01,East,101,4.0,7.0,64,-99.99,,,-99.99,,2013-01-20 20:23:00,
2013-01-20 15:33:00,78.0,67.0,30.00,East,92,6.0,12.0,68,-99.99,,,-99.99,,2013-01-20 20:33:00,
2013-01-20 15:42:00,77.0,68.0,30.00,East,81,7.0,11.0,74,-99.99,,,-99.99,,2013-01-20 20:42:00,
2013-01-20 15:54:00,77.0,68.0,30.00,ENE,75,6.0,10.0,73,-99.99,,,-99.99,,2013-01-20 20:54:00,
2013-01-20 16:04:00,77.0,68.0,30.00,ENE,75,6.0,10.0,73,-99.99,,,-99.99,,2013-01-20 21:04:00,
2013-01-20 16:13:00,77.0,68.0,30.00,ENE,75,6.0,10.0,73,-99.99,,,-99.99,,2013-01-20 21:13:00,
2013-01-20 16:23:00,76.0,68.0,30.00,ENE,63,6.0,11.0,74,-99.99,,,-99.99,,2013-01-20 21:23:00,
2013-01-20 16:33:00,76.0,68.0,30.00,NE,49,7.0,10.0,75,-99.99,,,-99.99,,2013-01-20 21:33:00,
2013-01-20 16:43:00,75.0,67.0,30.01,ENE,59,9.0,13.0,76,-99.99,,,-99.99,,2013-01-20 21:43:00,
2013-01-20 16:53:00,74.0,67.0,30.01,NE,52,11.0,16.0,77,-99.99,,,-99.99,,2013-01-20 21:53:00,
2013-01-20 17:03:00,74.0,67.0,30.01,NE,52,11.0,16.0,77,-99.99,,,-99.99,,2013-01-20 22:03:00,
2013-01-20 17:13:00,73.0,67.0,30.01,NE,38,12.0,18.0,80,-99.99,,,-99.99,,2013-01-20 22:13:00,
2013-01-20 17:23:00,73.0,67.0,30.01,NE,38,12.0,18.0,80,-99.99,,,-99.99,,2013-01-20 22:23:00,
2013-01-20 17:33:00,72.0,66.0,30.02,ENE,58,10.0,15.0,81,-99.99,,,-99.99,,2013-01-20 22:33:00,
2013-01-20 17:43:00,72.0,66.0,30.01,ENE,59,10.0,14.0,82,-99.99,,,-99.99,,2013-01-20 22:43:00,
2013-01-20 17:53:00,72.0,66.0,30.02,ENE,64,7.0,12.0,81,-99.99,,,-99.99,,2013-01-20 22:53:00,
2013-01-20 18:03:00,72.0,66.0,30.02,ENE,64,7.0,12.0,81,-99.99,,,-99.99,,2013-01-20 23:03:00,
2013-01-20 18:13:00,72.0,66.0,30.02,ENE,64,7.0,12.0,81,-99.99,,,-99.99,,2013-01-20 23:13:00,
2013-01-20 18:23:00,72.0,66.0,30.02,NE,47,7.0,13.0,82,-99.99,,,-99.99,,2013-01-20 23:23:00,
2013-01-20 18:33:00,72.0,66.0,30.02,NE,47,7.0,13.0,82,-99.99,,,-99.99,,2013-01-20 23:33:00,
2013-01-20 18:43:00,71.0,66.0,30.02,NE,52,5.0,8.0,83,-99.99,,,-99.99,,2013-01-20 23:43:00,
2013-01-20 18:53:00,71.0,66.0,30.02,NE,34,6.0,9.0,83,-99.99,,,-99.99,,2013-01-20 23:53:00,
2013-01-20 19:03:00,71.0,66.0,30.02,NE,34,6.0,9.0,83,-99.99,,,-99.99,,2013-01-21 00:03:00,
2013-01-20 19:13:00,71.0,66.0,30.03,NE,44,5.0,7.0,84,-99.99,,,-99.99,,2013-01-21 00:13:00,
2013-01-20 19:23:00,71.0,66.0,30.03,NE,44,5.0,7.0,84,-99.99,,,-99.99,,2013-01-21 00:23:00,
2013-01-20 19:33:00,71.0,66.0,30.03,NE,47,3.0,6.0,84,-99.99,,,-99.99,,2013-01-21 00:33:00,
2013-01-20 19:43:00,71.0,66.0,30.03,NE,47,3.0,6.0,84,-99.99,,,-99.99,,2013-01-21 00:43:00,
2013-01-20 19:54:00,71.0,66.0,30.03,NNE,33,5.0,6.0,85,-99.99,,,-99.99,,2013-01-21 00:54:00,
2013-01-20 20:03:00,71.0,66.0,30.03,NNE,33,5.0,6.0,85,-99.99,,,-99.99,,2013-01-21 01:03:00,
2013-01-20 20:13:00,70.0,66.0,30.03,East,87,4.0,6.0,86,-99.99,,,-99.99,,2013-01-21 01:13:00,
2013-01-20 20:23:00,70.0,66.0,30.03,East,87,4.0,6.0,86,-99.99,,,-99.99,,2013-01-21 01:23:00,
2013-01-20 20:33:00,70.0,67.0,30.03,NW,311,3.0,6.0,88,-99.99,,,-99.99,,2013-01-21 01:33:00,
2013-01-20 20:43:00,70.0,66.0,30.04,NNE,32,2.0,3.0,89,-99.99,,,-99.99,,2013-01-21 01:43:00,
2013-01-20 20:53:00,70.0,67.0,30.04,NNE,25,2.0,3.0,89,-99.99,,,-99.99,,2013-01-21 01:53:00,
2013-01-20 21:03:00,70.0,67.0,30.04,NNE,25,2.0,3.0,89,-99.99,,,-99.99,,2013-01-21 02:03:00,
2013-01-20 21:13:00,70.0,67.0,30.04,SSW,211,3.0,5.0,90,-99.99,,,-99.99,,2013-01-21 02:13:00,
2013-01-20 21:23:00,70.0,67.0,30.04,SSW,211,3.0,5.0,90,-99.99,,,-99.99,,2013-01-21 02:23:00,
2013-01-20 21:33:00,69.0,67.0,30.04,WSW,238,3.0,5.0,90,-99.99,,,-99.99,,2013-01-21 02:33:00,
2013-01-20 21:43:00,69.0,67.0,30.04,SW,227,3.0,4.0,91,-99.99,,,-99.99,,2013-01-21 02:43:00,
2013-01-20 21:53:00,69.0,67.0,30.04,SW,216,2.0,4.0,92,-99.99,,,-99.99,,2013-01-21 02:53:00,
2013-01-20 22:03:00,69.0,67.0,30.04,SW,216,2.0,4.0,92,-99.99,,,-99.99,,2013-01-21 03:03:00,
2013-01-20 22:13:00,69.0,67.0,30.05,NW,318,2.0,3.0,93,-99.99,,,-99.99,,2013-01-21 03:13:00,
2013-01-20 22:23:00,69.0,67.0,30.05,NW,318,2.0,3.0,93,-99.99,,,-99.99,,2013-01-21 03:23:00,
2013-01-20 22:33:00,69.0,67.0,30.05,NNE,25,2.0,4.0,93,-99.99,,,-99.99,,2013-01-21 03:33:00,
2013-01-20 22:43:00,69.0,67.0,30.05,South,180,1.0,1.0,94,-99.99,,,-99.99,,2013-01-21 03:43:00,
2013-01-20 22:54:00,69.0,67.0,30.05,WNW,296,2.0,3.0,94,-99.99,,,-99.99,,2013-01-21 03:54:00,
2013-01-20 23:03:00,69.0,67.0,30.05,WNW,296,2.0,3.0,94,-99.99,,,-99.99,,2013-01-21 04:03:00,
2013-01-20 23:13:00,68.0,67.0,30.05,WSW,242,2.0,4.0,94,-99.99,,,-99.99,,2013-01-21 04:13:00,
2013-01-20 23:23:00,68.0,67.0,30.05,WSW,242,2.0,4.0,94,-99.99,,,-99.99,,2013-01-21 04:23:00,
2013-01-20 23:33:00,69.0,67.0,30.05,WSW,249,2.0,3.0,94,-99.99,,,-99.99,,2013-01-21 04:33:00,
2013-01-20 23:43:00,69.0,67.0,30.05,WSW,249,2.0,3.0,94,-99.99,,,-99.99,,2013-01-21 04:43:00,
2013-01-20 23:53:00,69.0,67.0,30.05,SSW,204,3.0,5.0,94,-99.99,,,-99.99,,2013-01-21 04:53:00,